Theta_e
309 309 308 307 307 307 306 306 307 307 307 307 306 304 302 301 298 298 297 296 294 293 293 292 292 292 291 291 290 289 289 288 287 287 286 287 288 287 287 287 287 287 287
305 304 304 305 306 305 307 307 307 306 305 304 304 304 302 301 300 299 297 297 295 294 293 292 292 291 291 290 289 288 288 287 286 285 285 286 286 285 285 285 285 285 285
308 307 305 303 303 304 305 306 306 306 305 304 303 303 302 301 301 300 298 296 296 295 293 292 292 291 290 290 289 288 287 286 286 285 285 284 284 284 285 284 284 284 283
305 306 306 305 304 305 304 302 303 303 304 303 302 302 302 301 300 299 298 297 295 294 293 291 291 290 289 289 288 287 286 286 286 285 284 284 284 284 283 283 284 283 284
301 303 305 306 306 305 304 304 304 303 302 302 301 301 300 299 298 298 297 296 295 294 292 291 290 289 289 288 287 287 286 286 287 285 284 284 284 283 282 283 283 284 284
296 300 301 304 306 305 304 303 303 301 300 301 302 302 300 299 298 297 296 296 295 293 291 290 289 289 288 287 287 286 286 287 286 284 284 284 283 283 282 282 282 283 280
293 298 297 298 301 303 301 302 302 303 300 299 300 300 301 298 298 297 296 295 294 293 291 290 289 288 287 286 285 285 288 289 285 284 284 284 283 282 282 282 282 281 280
292 296 297 295 296 296 296 297 298 301 300 299 298 297 297 301 296 295 295 294 293 292 291 290 289 288 287 286 285 286 288 285 284 283 283 283 282 282 281 280 281 280 280
291 292 296 296 294 293 293 294 294 297 300 298 298 295 296 297 294 294 293 293 292 290 289 288 287 286 286 285 284 286 284 284 283 283 283 282 281 281 281 280 280 280 281
287 288 291 296 297 294 291 291 292 292 293 294 294 294 294 294 293 292 290 290 290 289 288 287 286 286 285 284 286 284 283 283 283 283 282 282 281 281 281 280 279 279 278
284 285 287 290 294 297 295 291 290 291 290 290 292 291 292 292 291 291 290 291 290 289 287 286 285 284 283 284 285 284 283 282 283 282 282 281 281 280 279 278 278 278 278
283 284 285 286 290 292 295 295 290 289 290 288 288 290 290 289 289 287 285 289 288 288 287 286 285 283 282 282 281 282 282 282 282 281 281 280 279 279 278 278 277 277 276
282 282 283 283 285 289 290 293 293 289 289 290 287 287 288 289 288 284 285 283 286 286 285 285 284 282 282 281 280 280 281 281 280 280 279 279 278 277 278 277 277 276 276
280 281 282 282 283 284 289 289 290 292 290 289 291 288 286 285 287 286 284 284 284 285 284 282 280 280 280 280 279 280 280 280 279 279 278 278 277 277 277 276 276 276 275
277 278 279 280 280 281 283 287 289 289 291 290 291 290 289 289 290 285 284 284 283 284 283 282 279 278 278 279 279 279 278 278 277 277 277 276 276 276 276 276 275 275 274
275 276 276 276 278 278 280 282 285 288 289 290 289 288 287 289 288 287 284 283 283 283 282 280 280 280 279 279 279 278 277 276 276 276 276 275 275 275 275 275 275 274 273
270 272 273 274 275 275 278 280 281 284 287 285 286 285 284 286 287 285 283 282 282 280 282 281 280 280 280 278 277 277 276 276 275 275 275 274 274 274 274 274 274 273 273
268 269 269 271 273 274 276 278 279 280 283 284 284 283 282 281 282 284 283 281 281 278 281 282 281 281 279 278 277 276 276 275 275 275 274 274 273 272 273 273 273 272 272
266 267 268 268 270 272 274 277 278 280 280 281 282 282 281 280 279 280 282 281 280 278 279 281 282 280 277 276 276 276 275 275 274 274 274 273 272 272 272 272 272 271 270
266 267 267 267 269 272 274 276 278 279 279 280 280 280 281 279 279 279 280 280 279 279 279 281 280 278 276 275 275 275 275 274 273 273 273 272 272 272 271 271 271 271 269
266 267 267 267 268 270 272 275 277 278 279 279 279 279 280 280 279 280 280 279 278 279 280 279 279 276 274 275 275 274 274 273 273 272 272 272 272 271 271 271 270 270 270
267 268 268 268 269 271 273 275 276 278 278 277 277 278 279 279 279 279 279 279 278 279 278 279 276 274 274 274 273 273 273 272 272 271 271 271 271 271 270 270 270 270 269
270 270 271 270 270 272 273 275 276 276 276 276 277 278 279 279 279 279 279 278 278 277 276 274 273 273 273 273 273 272 272 272 271 271 271 271 271 271 270 270 270 269 269
272 273 273 272 272 273 274 274 274 275 275 276 276 277 278 279 278 278 278 278 277 275 273 272 272 272 272 272 272 272 272 271 271 271 271 271 271 270 270 270 270 269 269
271 272 272 272 273 273 273 273 274 274 275 275 275 276 277 277 278 277 277 276 274 272 271 272 272 272 271 271 271 271 271 270 270 270 270 271 270 270 270 270 269 269 269
270 271 271 272 272 272 272 272 273 273 274 274 275 275 276 276 276 275 275 273 271 272 272 271 271 271 271 271 271 271 270 270 270 270 270 270 270 270 270 270 269 269 268
Wind_Speed
28 27 29 34 36 40 46 49 49 46 45 45 44 43 44 46 47 46 45 43 42 41 40 38 35 32 29 26 24 22 22 22 24 23 22 22 24 26 29 31 33 33 32
31 36 36 34 35 39 42 45 47 48 48 48 46 45 45 46 46 48 48 46 45 44 43 40 37 35 31 28 26 24 23 22 24 24 25 26 27 30 33 34 34 36 37
27 31 35 38 40 40 41 44 46 49 49 50 49 49 49 47 48 49 49 49 47 45 44 42 39 36 33 30 28 25 23 23 23 25 26 26 28 30 32 34 36 37 39
25 27 31 33 37 40 42 44 44 47 48 51 51 50 50 49 50 49 51 50 48 47 45 42 39 36 33 31 29 26 24 22 22 25 25 26 28 30 33 35 37 38 42
31 26 30 31 31 36 41 42 45 46 48 47 48 49 50 52 53 52 52 50 51 49 47 44 41 38 35 33 31 27 23 22 22 24 24 26 27 29 32 34 38 40 44
39 34 29 28 32 33 36 40 43 46 46 46 47 50 51 54 54 52 51 52 51 51 49 46 42 39 37 34 31 27 24 22 23 23 23 25 24 27 29 32 36 40 42
42 40 34 29 28 31 32 36 40 41 45 47 48 52 50 51 54 53 53 52 52 51 49 47 43 40 37 34 31 28 25 24 23 21 23 21 23 23 27 30 33 36 39
42 42 41 35 29 26 26 34 37 36 40 43 47 52 51 49 54 53 54 52 51 51 50 47 43 41 38 35 32 29 24 21 19 19 20 18 19 21 24 28 32 37 40
41 41 41 41 38 30 25 27 32 33 35 41 44 49 50 47 50 51 53 53 53 53 48 45 43 41 37 35 34 29 24 20 18 19 18 16 15 17 21 27 30 35 43
45 40 38 40 41 37 28 25 26 30 35 35 39 44 43 45 47 49 55 52 49 49 49 45 43 40 39 38 34 28 23 19 18 17 14 14 15 17 19 23 27 31 34
49 49 39 35 35 36 31 23 22 25 29 34 32 38 39 41 41 48 53 50 50 48 48 47 45 43 40 36 32 27 21 19 19 16 14 14 15 16 20 22 23 27 32
49 46 45 37 33 32 32 27 22 22 24 30 31 33 34 34 37 44 46 46 45 47 49 46 44 42 38 33 29 24 21 21 18 15 14 14 16 17 19 22 24 27 30
54 52 46 43 37 31 32 30 26 26 24 27 29 32 33 32 35 41 40 41 41 41 42 41 41 40 35 29 26 25 23 19 16 15 13 13 16 18 20 21 25 28 33
57 56 51 46 43 37 33 31 30 31 30 31 28 33 34 34 35 42 43 41 37 38 35 35 35 35 32 31 30 24 22 20 16 14 13 14 16 18 19 23 29 32 38
57 56 54 47 43 40 38 34 32 34 30 37 35 34 37 35 40 47 48 49 45 40 38 38 36 36 35 31 26 24 22 18 14 13 12 14 16 18 20 24 29 34 38
52 54 51 46 44 37 37 38 34 32 31 35 36 36 38 33 33 41 47 48 45 40 39 45 46 40 35 30 28 24 21 16 13 12 11 13 16 19 23 26 29 34 39
46 47 46 42 41 39 31 35 38 35 29 35 34 33 36 32 31 31 43 45 39 40 42 43 43 40 34 29 27 23 18 15 13 11 10 12 16 19 23 28 32 34 39
42 41 41 41 38 38 35 32 35 36 31 29 35 29 30 30 30 30 36 40 38 43 46 42 40 34 31 31 27 23 19 16 13 11 11 12 14 19 24 29 32 35 38
41 40 39 39 38 37 35 31 36 34 32 31 29 28 30 29 24 27 35 51 52 51 41 39 36 33 32 28 25 21 18 14 13 11 10 13 14 19 24 29 33 36 38
38 37 35 35 35 32 30 28 37 33 31 29 29 28 32 28 27 37 45 46 47 50 43 40 37 33 31 27 23 20 16 13 11 11 10 13 14 18 25 30 33 37 41
37 37 35 35 33 30 27 29 33 30 29 28 28 26 34 35 34 39 41 44 48 46 40 35 33 31 29 25 21 18 15 12 11 11 12 13 15 20 25 30 33 37 43
36 36 34 32 29 24 22 27 28 27 27 25 24 25 28 31 37 41 44 43 41 37 33 30 30 28 23 20 17 15 12 10 10 11 12 14 16 21 26 30 34 39 44
31 31 29 24 21 18 20 23 24 23 23 23 24 24 31 37 38 42 44 40 34 28 27 26 24 23 20 16 14 12 9 8 9 10 13 15 17 22 26 31 35 39 44
22 13 12 11 11 15 18 18 18 19 22 23 29 31 34 35 36 34 34 35 28 27 24 22 20 18 15 13 11 9 8 8 8 10 13 15 19 23 28 32 35 37 43
12 7 6 8 11 12 12 12 14 17 22 25 27 29 28 29 31 30 31 26 26 24 22 19 17 14 12 11 9 8 8 8 10 11 13 16 20 24 28 32 34 37 42
11 7 2 1 4 6 8 11 14 17 19 22 24 26 24 24 27 28 24 23 23 20 18 16 14 11 9 8 8 8 8 9 11 12 13 15 20 25 28 32 34 37 41
Wind_Direction
307 294 279 267 259 253 248 245 243 242 241 239 235 234 232 232 230 232 234 234 234 234 234 236 238 241 244 247 252 258 264 269 273 280 287 295 300 306 312 316 318 317 316
313 300 285 275 265 258 254 250 248 245 244 243 240 235 234 231 230 231 232 232 231 232 233 234 236 238 241 245 249 253 258 266 274 283 292 299 309 320 321 325 325 327 328
302 301 297 286 274 266 258 254 250 247 246 245 243 240 236 232 232 231 232 233 233 233 234 234 235 237 238 242 246 249 254 259 271 282 290 301 313 318 322 324 327 329 328
319 300 292 291 288 282 275 268 261 254 250 248 245 243 242 238 235 232 231 230 232 233 233 232 233 235 238 241 243 245 249 258 270 279 289 302 312 322 324 326 325 328 327
337 318 303 294 286 282 277 273 269 262 257 252 249 246 244 241 237 233 231 231 231 231 229 229 231 232 235 237 239 243 246 255 267 278 288 300 315 324 323 327 325 326 323
344 337 324 296 281 277 276 271 268 264 257 252 251 247 245 243 240 237 234 232 231 230 228 227 228 229 231 235 238 238 244 256 266 272 290 305 317 317 320 323 325 328 329
341 341 340 327 296 275 273 270 266 266 263 256 250 246 243 242 242 235 233 230 230 229 227 226 226 227 228 230 232 235 240 256 268 279 290 304 306 315 319 320 322 322 320
332 329 338 340 328 306 282 272 266 262 262 259 254 250 243 247 241 235 233 230 227 227 226 225 226 227 227 227 227 229 236 244 255 271 284 292 300 316 321 317 317 316 314
323 324 322 332 335 327 309 289 274 263 256 253 250 248 246 244 238 234 233 230 224 223 222 223 223 223 223 226 225 227 230 236 248 262 279 296 302 308 312 308 313 315 316
320 320 316 315 319 329 322 304 287 269 260 253 248 246 243 240 235 231 231 227 224 219 218 220 222 222 222 222 224 227 230 236 245 256 268 280 291 302 306 304 309 310 312
314 314 313 308 304 308 314 312 300 281 265 255 247 247 243 239 231 229 231 228 224 220 219 220 219 219 219 221 224 227 229 234 243 253 264 280 292 303 303 302 308 310 311
314 311 311 309 304 299 299 299 295 280 272 259 250 244 240 235 225 223 218 228 222 222 222 220 220 218 216 216 219 223 224 232 240 251 267 284 294 298 300 307 313 311 308
311 308 305 306 301 296 291 289 287 278 266 263 254 246 238 230 220 212 205 220 218 220 224 223 218 214 210 211 211 215 222 230 237 249 268 282 291 298 306 312 311 314 313
305 304 305 302 299 290 284 283 278 273 272 261 254 244 238 226 214 211 202 214 222 218 218 221 213 207 206 208 208 212 222 227 236 250 265 279 290 299 310 318 318 321 316
300 300 300 298 295 289 283 277 277 272 270 269 263 255 243 231 221 212 205 208 216 215 203 204 205 207 206 206 206 214 219 227 237 252 268 285 299 307 317 322 322 323 319
296 295 295 294 290 283 281 282 271 273 270 268 266 262 258 252 241 220 213 209 216 216 201 201 202 205 210 207 208 212 216 224 237 251 270 291 306 313 319 323 326 325 325
293 291 290 288 285 284 278 272 276 268 268 266 261 258 260 254 251 233 214 204 206 207 212 203 203 207 203 205 207 208 217 223 240 256 277 298 309 313 321 326 329 329 328
291 287 285 284 282 281 278 268 264 271 268 264 256 243 237 248 240 234 211 192 194 202 213 208 205 206 202 202 206 208 211 221 236 255 277 295 306 315 325 330 330 331 333
291 287 284 281 278 277 270 268 264 267 265 262 254 245 231 227 212 218 205 192 193 203 205 211 209 199 199 201 204 208 213 219 237 252 272 291 306 318 329 332 332 333 337
292 290 288 284 281 276 269 258 254 258 258 255 250 242 223 211 201 198 194 195 197 206 209 207 199 193 197 199 203 209 213 223 240 262 278 291 309 322 331 334 332 337 335
296 292 289 284 278 272 258 250 253 258 256 250 244 234 220 216 196 196 193 202 204 209 211 201 193 191 195 198 202 208 213 223 242 264 281 297 315 325 332 332 333 339 337
295 291 286 275 273 271 253 247 254 254 253 245 236 227 209 210 199 196 200 204 208 211 201 195 189 193 195 197 201 209 216 231 254 272 289 306 319 326 329 332 335 337 338
306 292 282 271 263 251 248 250 247 242 236 230 224 216 197 203 201 201 203 202 198 195 189 185 188 192 193 195 204 213 226 248 266 283 296 313 320 324 328 332 335 334 338
322 295 274 266 259 248 245 242 234 224 214 209 195 194 200 201 200 197 192 187 195 189 181 184 188 193 197 205 216 225 243 264 285 292 302 312 315 324 331 332 330 332 335
341 324 287 264 245 234 226 223 219 206 196 195 193 196 197 192 189 184 183 186 180 177 180 183 192 199 207 219 232 246 262 280 292 292 297 302 318 330 328 326 331 331 333
15 21 35 194 201 201 200 195 193 194 192 192 192 191 185 177 177 177 177 170 172 175 184 190 194 202 213 227 243 257 270 283 288 286 287 311 321 323 324 327 331 329 331